Location: Unspecified
(0.0000°N, 0.0000°E)
Time: 08:45:24
(UTC+00:00)

METEOR M2 - Pass Details

Date: 02 December 2022
Orbit: 818 x 827 km, 98.4° (Epoch: 01 February)

Event Time Altitude Azimuth Distance (km) Brightness Sun altitude
Rises 18:41:49 0° 181° (S) 3,361 ? -12.1°
Reaches altitude 10° 18:44:16 10° 188° (S) 2,427 ? -12.7°
Maximum altitude 18:49:18 42° 257° (WSW) 1,171 ? -13.8°
Drops below altitude 10° 18:54:20 10° 327° (NNW) 2,420 ? -15.0°
Sets 18:56:48 0° 334° (NNW) 3,351 ? -15.6°
